User: anonymous   Login
Location: Unspecified
(0.0000°N, 0.0000°E)
Time: 14:23:42
(UTC+02:00)
Language:

BREEZE-M DEB (TANK) - Orbit

View from above orbital plane
View from above orbital plane
View from above satellite
View from above satellite

Ground track
Ground track

The orbit data is extracted from the following two-line orbital elements,

1 33374U 08044B   15245.57575112  .00000198  00000-0  15632-3 0  9994
2 33374  49.4793  21.9353 5427865  52.8330   7.5381  4.85862694122202
Epoch (UTC): 02 September 2015 13:49:04
Eccentricity: 0.5427865
inclination: 49.4793°
perigee height: 354 km
apogee height: 16339 km
right ascension of ascending node: 21.9353°
argument of perigee: 52.8330°
revolutions per day: 4.85862694
mean anomaly at epoch: 7.5381°
orbit number at epoch: 12220

The dashed part of the orbit path shows where the satellite is in the earth's shadow,  

DLR